Flag for U.S.A. Weather past 2 weeks in Concord, California, U.S.A.

Now
55 °F

Clear.


Feels Like: 51 °F
Forecast: 54 / 75 °F
Wind: 16 mph from South

Location: Buchanan Field

Current Time: May 24, 2015 at 1:22:25 AM

Latest Report: May 24, 2015 at 12:53 AM


Visibility: 10 mi

Pressure: 29.98 "Hg

Humidity: 80%

Dew point: 49 °F

Location of ConcordLocation

Historic Weather in Concord — Graph

°F

Concord temperature yesterday

Maximum temperature yesterday: 71 °F (at 3:53 PM)
Minimum temperature yesterday: 55 °F (at 4:53 AM)
Average temperature yesterday: 61 °F

Past Weeks' High & Low Weather Summary

 TemperatureHumidityPressure
High74 °F (May 9, 3:53 PM)86% (May 15, 4:53 AM)30.10 "Hg (May 15, 4:53 AM)
Low50 °F (May 12, 3:53 AM)30% (May 12, 4:53 PM)29.74 "Hg (May 14, 5:53 PM)
Average59 °F64%29.93 "Hg
* Reported May 8 11:53 PM — May 23 11:53 PM, Concord, Weather by CustomWeather, © 2015

Note: Actual official high and low records may vary slightly from our data, if they occured in-between our weather recording intervals... More about our weather records

Advertising

Concord weather history for previous 24 hours

 ConditionsComfort  
Time TempWeatherWind HumidityBarometerVisibility
11:53 PM
Sat, May 23
55 °FClear.18 mph77%29.98 "Hg10 mi
10:53 PM56 °FClear.18 mph75%29.98 "Hg10 mi
9:53 PM56 °FClear.17 mph75%29.99 "Hg10 mi
8:53 PM58 °FSunny.18 mph72%29.98 "Hg10 mi
7:53 PM62 °FSunny.17 mph62%29.96 "Hg10 mi
6:53 PM66 °FSunny.17 mph54%29.96 "Hg10 mi
5:53 PM68 °FSunny.16 mph51%29.96 "Hg10 mi
4:53 PM70 °FSunny.15 mph49%29.96 "Hg10 mi
3:53 PM71 °FPassing clouds.15 mph47%29.98 "Hg10 mi
2:53 PM70 °FPassing clouds.17 mph47%29.99 "Hg10 mi
1:53 PM68 °FSunny.13 mph49%30.01 "Hg10 mi
12:53 PM65 °FScattered clouds.14 mph54%30.03 "Hg10 mi
11:53 AM64 °FScattered clouds.14 mph56%30.04 "Hg10 mi
10:53 AM63 °FPartly sunny.12 mph60%30.04 "Hg10 mi
9:53 AM58 °FOvercast.16 mph72%30.05 "Hg10 mi
8:53 AM57 °FPartly sunny.16 mph74%30.04 "Hg10 mi
7:53 AM57 °FPartly sunny.14 mph74%30.03 "Hg10 mi
6:53 AM55 °FOvercast.13 mph80%30.02 "Hg10 mi
5:53 AM55 °FOvercast.12 mph83%30.00 "Hg10 mi
4:53 AM55 °FOvercast.18 mph83%30.00 "Hg10 mi
3:53 AM56 °FOvercast.18 mph77%30.00 "Hg10 mi
2:53 AM57 °FOvercast.10 mph74%30.00 "Hg10 mi
1:53 AM57 °FOvercast.15 mph74%30.00 "Hg10 mi
Weather by CustomWeather, © 2015

See weather overviewHow to use our weather pages